Regional Weather Roundup
Issued by NWS Sioux Falls, SD

Home | Current Version | Previous Version | Text Only | Print | Product List | Glossary Off
Versions: 1 2 3 4 5 6 7 8 9 10 11 12 13 14 15 16 17 18 19 20 21 22 23 24 25 26 27 28 29 30 31 32 33 34 35 36 37 38 39 40 41 42 43 44 45 46 47 48 49 50

000
ASUS43 KFSD 311810
RWRFSD

WEATHER ROUNDUP FOR SE SOUTH DAKOTA/SW MINNESOTA/NW IOWA
NATIONAL WEATHER SERVICE SIOUX FALLS SD
100 PM CDT TUE MAY 31 2016

NOTE: "FAIR" INDICATES FEW OR NO CLOUDS BELOW 12,000 FEET WITH NO
SIGNIFICANT WEATHER AND OR OBSTRUCTIONS TO VISIBILITY.


SDZ038>040-050-052>070-311900-
SOUTHEAST SOUTH DAKOTA

CITY           SKY/WX    TMP DP  RH WIND       PRES   REMARKS
BROOKINGS      SUNNY     66  45  46 W20G28    29.90S
CHAMBERLAIN    SUNNY     71  49  44 SW14G20   29.91F
6HR MIN TEMP:  53; 6HR MAX TEMP:  71;

HURON          SUNNY     69  45  41 W23G30    29.88F
6HR MIN TEMP:  54; 6HR MAX TEMP:  70;

MADISON        FAIR      64  46  52 W17G26    29.93R
MITCHELL       SUNNY     69  47  45 W13       29.92F
6HR MIN TEMP:  56; 6HR MAX TEMP:  70;

SIOUX FALLS    MOSUNNY   68  49  50 NW15G21   29.93S
6HR MIN TEMP:  59; 6HR MAX TEMP:  68;

WINNER         FAIR      72  40  31 W18G29    29.92F
YANKTON        SUNNY     68  46  45 NW12G17   29.95F
$$

MNZ071-072-080-081-089-090-097-098-311900-
SOUTHWEST MINNESOTA

CITY           SKY/WX    TMP DP  RH WIND       PRES   REMARKS
FAIRMONT       CLOUDY    64  57  77 W12       29.91S
JACKSON        CLOUDY    64  55  72 W9        29.93F
LUVERNE        SUNNY     68  46  45 W13       29.94S
MARSHALL       SUNNY     69  49  48 W21       29.89R
6HR MIN TEMP:  62; 6HR MAX TEMP:  69;

MONTEVIDEO     SUNNY     72  54  53 NW12      29.88R
PIPESTONE      SUNNY     66  50  55 NW13G21   29.92S
REDWOOD FALLS  PTSUNNY   70  56  61 W9        29.88S
TRACY          MOSUNNY   69  56  63 W10G16    29.90S
WINDOM         CLOUDY    68  55  64 W6        29.91F
WORTHINGTON    PTSUNNY   66  55  67 W15       29.94S
$$

IAZ001>003-012>014-020>022-031-032-NEZ013-014-SDZ071-311900-
NORTHWEST IOWA

CITY           SKY/WX    TMP DP  RH WIND       PRES   REMARKS
CHEROKEE       CLOUDY    66  59  78 W10G16    29.94F
DENISON        CLOUDY    68  63  83 NW12      29.92F
ESTHERVILLE    CLOUDY    63  60  90 W14       29.92F
LE MARS        MOSUNNY   68  55  64 NW9       29.95F
ORANGE CITY    MOSUNNY   66  55  68 NW6G17    29.95F
SHELDON        MOSUNNY   68  55  64 W12       29.93F
SIOUX CITY     MOSUNNY   72  55  55 NW10      29.94F
6HR MIN TEMP:  62; 6HR MAX TEMP:  72; 6HR PCP:  0.01;

SPENCER        CLOUDY    65  57  75 W10       29.93F
6HR MIN TEMP:  61; 6HR MAX TEMP:  64; 6HR PCP:  0.13;

STORM LAKE     CLOUDY    66  61  82 NW10      29.94F
$$

ABBREVIATIONS USED IN REMARKS
   TC - TEMPERATURE IN CELSIUS
  WCI - WIND CHILL INDEX
   HX - HEAT INDEX
  VSB - VISIBILITY





USA.gov is the U.S. government's official web portal to all federal, state and local government web resources and services.